| time (UTC) | temp F | wind direction | speed knots | gust knots | rain 1hr in | rain 24hr in | rain mn in | humidity % | barometer mb |
| 20260505201047 | 81 | 27 | 0.9 | 5.2 | 0.00 | 0.01 | 0.00 | 77 | 1007.8 |
| 20260505200546 | 81 | 9 | 1.7 | 5.2 | 0.00 | 0.01 | 0.00 | 76 | 1007.8 |
| 20260505195545 | 81 | 12 | 1.7 | 7.0 | 0.00 | 0.01 | 0.00 | 77 | 1007.8 |
| 20260505195045 | 81 | 0 | 0.9 | 4.3 | 0.00 | 0.01 | 0.00 | 77 | 1008.0 |
| 20260505194553 | 81 | 0 | 0.0 | 5.2 | 0.00 | 0.01 | 0.00 | 79 | 1008.0 |
| 20260505194048 | 81 | 19 | 1.7 | 5.2 | 0.00 | 0.01 | 0.00 | 78 | 1008.1 |
| 20260505193545 | 81 | 19 | 0.0 | 3.5 | 0.00 | 0.01 | 0.00 | 78 | 1008.1 |
| 20260505193056 | 81 | 0 | 0.0 | 3.5 | 0.00 | 0.01 | 0.00 | 78 | 1008.1 |
| 20260505192547 | 81 | 18 | 0.9 | 4.3 | 0.00 | 0.01 | 0.00 | 79 | 1008.1 |
| 20260505192048 | 81 | 18 | 0.0 | 4.3 | 0.00 | 0.01 | 0.00 | 79 | 1008.1 |
| 20260505191556 | 81 | 24 | 0.9 | 3.5 | 0.00 | 0.01 | 0.00 | 80 | 1008.2 |
| 20260505191047 | 80 | 0 | 0.9 | 4.3 | 0.00 | 0.01 | 0.00 | 80 | 1008.2 |
| 20260505190550 | 80 | 23 | 0.0 | 5.2 | 0.00 | 0.01 | 0.00 | 80 | 1008.2 |
| 20260505190051 | 80 | 0 | 0.9 | 5.2 | 0.00 | 0.01 | 0.00 | 80 | 1008.3 |
| 20260505185546 | 80 | 18 | 0.9 | 5.2 | 0.00 | 0.01 | 0.00 | 80 | 1008.3 |
| 20260505185043 | 80 | 0 | 0.0 | 5.2 | 0.00 | 0.01 | 0.00 | 81 | 1008.4 |
| 20260505184558 | 79 | 53 | 0.0 | 4.3 | 0.00 | 0.01 | 0.00 | 82 | 1008.5 |
| 20260505184046 | 79 | 0 | 0.9 | 4.3 | 0.00 | 0.01 | 0.00 | 81 | 1008.6 |
| 20260505183545 | 79 | 0 | 0.9 | 4.3 | 0.00 | 0.01 | 0.00 | 82 | 1008.6 |
| 20260505183048 | 78 | 0 | 0.9 | 3.5 | 0.00 | 0.01 | 0.00 | 82 | 1008.8 |
| 20260505182545 | 78 | 0 | 0.0 | 4.3 | 0.00 | 0.01 | 0.00 | 83 | 1008.9 |
| 20260505182049 | 78 | 0 | 0.9 | 4.3 | 0.00 | 0.01 | 0.00 | 83 | 1009.0 |
| 20260505181551 | 78 | 0 | 1.7 | 4.3 | 0.00 | 0.01 | 0.00 | 84 | 1009.0 |
| 20260505181047 | 77 | 24 | 0.0 | 3.5 | 0.00 | 0.01 | 0.00 | 84 | 1008.9 |
| 20260505180548 | 77 | 24 | 0.9 | 3.5 | 0.00 | 0.01 | 0.00 | 84 | 1009.0 |
| 20260505180056 | 77 | 30 | 0.0 | 3.5 | 0.00 | 0.01 | 0.00 | 85 | 1009.1 |
| 20260505175547 | 76 | 30 | 1.7 | 3.5 | 0.00 | 0.01 | 0.00 | 85 | 1009.0 |
| 20260505175049 | 76 | 0 | 0.0 | 3.5 | 0.00 | 0.01 | 0.00 | 85 | 1009.3 |
| 20260505174607 | 76 | 19 | 1.7 | 3.5 | 0.00 | 0.01 | 0.00 | 85 | 1009.3 |
| 20260505174046 | 76 | 0 | 0.0 | 6.1 | 0.00 | 0.01 | 0.00 | 86 | 1009.4 |
| 20260505173546 | 76 | 0 | 0.9 | 6.1 | 0.00 | 0.01 | 0.00 | 85 | 1009.3 |
| 20260505173047 | 75 | 20 | 0.0 | 3.5 | 0.00 | 0.01 | 0.00 | 85 | 1009.4 |
| 20260505172545 | 75 | 22 | 0.0 | 3.5 | 0.00 | 0.01 | 0.00 | 86 | 1009.5 |
| 20260505172045 | 75 | 0 | 0.9 | 3.5 | 0.00 | 0.01 | 0.00 | 86 | 1009.5 |
| 20260505171549 | 75 | 26 | 0.9 | 2.6 | 0.00 | 0.01 | 0.00 | 86 | 1009.5 |
| 20260505171047 | 75 | 0 | 0.0 | 4.3 | 0.00 | 0.01 | 0.00 | 86 | 1009.6 |
| 20260505170546 | 75 | 26 | 0.0 | 4.3 | 0.00 | 0.01 | 0.00 | 87 | 1009.7 |
| 20260505170123 | 74 | 26 | 0.9 | 4.3 | 0.00 | 0.01 | 0.00 | 87 | 1009.6 |
| 20260505165547 | 74 | 0 | 0.9 | 4.3 | 0.00 | 0.01 | 0.00 | 87 | 1009.5 |
| 20260505165047 | 74 | 0 | 0.9 | 3.5 | 0.00 | 0.01 | 0.00 | 87 | 1009.5 |
| 20260505164551 | 74 | 0 | 0.0 | 1.7 | 0.00 | 0.01 | 0.00 | 88 | 1009.5 |
| 20260505164046 | 74 | 0 | 0.0 | 1.7 | 0.00 | 0.01 | 0.00 | 88 | 1009.6 |
| 20260505163546 | 74 | 0 | 0.0 | 1.7 | 0.00 | 0.01 | 0.00 | 88 | 1009.5 |
| 20260505163048 | 74 | 0 | 0.0 | 3.5 | 0.00 | 0.01 | 0.00 | 88 | 1009.4 |
| 20260505162545 | 73 | 42 | 0.9 | 2.6 | 0.00 | 0.01 | 0.00 | 88 | 1009.6 |
| 20260505162045 | 73 | 0 | 0.0 | 2.6 | 0.00 | 0.01 | 0.00 | 89 | 1009.6 |
| 20260505161554 | 73 | 0 | 0.0 | 2.6 | 0.00 | 0.01 | 0.00 | 89 | 1009.6 |
| 20260505161046 | 73 | 31 | 0.0 | 2.6 | 0.00 | 0.01 | 0.00 | 89 | 1009.7 |
| 20260505160549 | 73 | 35 | 0.0 | 3.5 | 0.00 | 0.01 | 0.00 | 89 | 1009.6 |
| 20260505153057 | 72 | 0 | 0.0 | 3.5 | 0.00 | 0.01 | 0.00 | 90 | 1009.8 |
| 20260505152548 | 72 | 33 | 0.0 | 3.5 | 0.00 | 0.01 | 0.00 | 90 | 1009.7 |
| 20260505152046 | 72 | 0 | 0.0 | 3.5 | 0.00 | 0.01 | 0.00 | 90 | 1009.7 |
| 20260505151551 | 72 | 33 | 0.0 | 1.7 | 0.00 | 0.01 | 0.00 | 90 | 1009.8 |
| 20260505151045 | 72 | 0 | 0.0 | 3.5 | 0.00 | 0.01 | 0.00 | 90 | 1009.5 |
| 20260505150546 | 72 | 0 | 0.0 | 3.5 | 0.00 | 0.01 | 0.00 | 90 | 1009.4 |
| 20260505140546 | 71 | 0 | 0.9 | 4.3 | 0.00 | 0.01 | 0.00 | 90 | 1009.2 |
| 20260505130112 | 71 | 0 | 0.0 | 3.5 | 0.00 | 0.01 | 0.00 | 91 | 1008.7 |
| 20260505124607 | 71 | 43 | 0.0 | 2.6 | 0.00 | 0.01 | 0.00 | 91 | 1008.5 |
| 20260505124048 | 71 | 0 | 0.0 | 2.6 | 0.00 | 0.01 | 0.00 | 91 | 1008.4 |
| 20260505123545 | 71 | 0 | 0.0 | 2.6 | 0.00 | 0.01 | 0.00 | 91 | 1008.4 |
| 20260505123116 | 71 | 46 | 0.0 | 2.6 | 0.00 | 0.01 | 0.00 | 90 | 1008.4 |
| 20260505122545 | 71 | 0 | 0.9 | 2.6 | 0.00 | 0.01 | 0.00 | 90 | 1008.3 |
| 20260505122046 | 71 | 29 | 0.0 | 3.5 | 0.00 | 0.01 | 0.00 | 90 | 1008.2 |
| 20260505121552 | 71 | 0 | 0.0 | 3.5 | 0.00 | 0.01 | 0.00 | 90 | 1008.1 |
| 20260505121047 | 71 | 29 | 0.0 | 3.5 | 0.00 | 0.01 | 0.00 | 90 | 1008.0 |
| 20260505120547 | 71 | 22 | 0.0 | 4.3 | 0.00 | 0.01 | 0.00 | 90 | 1008.0 |
| 20260505120057 | 71 | 24 | 0.0 | 4.3 | 0.00 | 0.01 | 0.00 | 90 | 1008.0 |
| 20260505115546 | 71 | 19 | 0.9 | 4.3 | 0.00 | 0.01 | 0.00 | 90 | 1007.9 |
| 20260505115048 | 71 | 24 | 0.0 | 2.6 | 0.00 | 0.01 | 0.00 | 90 | 1007.9 |
| 20260505114612 | 71 | 24 | 0.0 | 3.5 | 0.00 | 0.01 | 0.00 | 90 | 1008.0 |
| 20260505114048 | 71 | 0 | 0.9 | 4.3 | 0.00 | 0.01 | 0.00 | 90 | 1007.9 |
| 20260505113548 | 71 | 0 | 0.0 | 4.3 | 0.00 | 0.01 | 0.00 | 90 | 1007.9 |
| 20260505113058 | 71 | 22 | 0.9 | 4.3 | 0.00 | 0.01 | 0.00 | 89 | 1007.8 |
| 20260505112545 | 71 | 18 | 0.9 | 4.3 | 0.00 | 0.01 | 0.00 | 89 | 1008.0 |
| 20260505112048 | 71 | 22 | 0.9 | 3.5 | 0.00 | 0.01 | 0.00 | 89 | 1007.9 |
| 20260505111605 | 71 | 28 | 0.9 | 2.6 | 0.00 | 0.01 | 0.00 | 89 | 1007.9 |
| 20260505111049 | 71 | 0 | 0.0 | 4.3 | 0.00 | 0.01 | 0.00 | 89 | 1007.9 |
| 20260505110546 | 71 | 0 | 0.0 | 4.3 | 0.00 | 0.01 | 0.00 | 89 | 1008.1 |
| 20260505102045 | 71 | 23 | 0.9 | 3.5 | 0.00 | 0.01 | 0.00 | 89 | 1008.2 |
| 20260505101554 | 71 | 22 | 0.0 | 1.7 | 0.00 | 0.01 | 0.00 | 89 | 1008.1 |
| 20260505101048 | 71 | 0 | 0.0 | 1.7 | 0.00 | 0.01 | 0.00 | 89 | 1008.2 |
| 20260505100545 | 71 | 0 | 0.0 | 1.7 | 0.00 | 0.01 | 0.00 | 89 | 1008.3 |
| 20260505100052 | 71 | 0 | 0.0 | 3.5 | 0.00 | 0.01 | 0.00 | 88 | 1008.3 |
| 20260505095544 | 71 | 22 | 0.0 | 3.5 | 0.00 | 0.02 | 0.00 | 88 | 1008.1 |
| 20260505095045 | 71 | 0 | 0.0 | 2.6 | 0.00 | 0.02 | 0.00 | 88 | 1008.1 |
| 20260505094552 | 71 | 0 | 0.0 | 4.3 | 0.00 | 0.02 | 0.00 | 88 | 1008.1 |
| 20260505094045 | 71 | 22 | 0.0 | 6.1 | 0.00 | 0.02 | 0.00 | 88 | 1008.0 |
| 20260505093546 | 71 | 0 | 0.9 | 6.1 | 0.00 | 0.02 | 0.00 | 88 | 1008.3 |
| 20260505093054 | 71 | 35 | 0.0 | 3.5 | 0.00 | 0.02 | 0.00 | 88 | 1008.2 |
| 20260505092546 | 71 | 0 | 0.0 | 3.5 | 0.00 | 0.02 | 0.00 | 88 | 1008.3 |
| 20260505092046 | 71 | 0 | 0.0 | 5.2 | 0.00 | 0.02 | 0.00 | 88 | 1008.3 |
| 20260505091551 | 71 | 12 | 0.9 | 5.2 | 0.00 | 0.02 | 0.00 | 88 | 1008.3 |
| 20260505091047 | 71 | 0 | 0.9 | 5.2 | 0.00 | 0.02 | 0.00 | 88 | 1008.2 |
| 20260505090545 | 71 | 0 | 0.0 | 4.3 | 0.00 | 0.02 | 0.00 | 87 | 1008.3 |
| 20260505090058 | 71 | 25 | 0.0 | 4.3 | 0.00 | 0.02 | 0.00 | 87 | 1008.5 |
| 20260505085545 | 71 | 0 | 0.0 | 4.3 | 0.00 | 0.02 | 0.00 | 87 | 1008.3 |
| 20260505085045 | 71 | 0 | 0.0 | 4.3 | 0.00 | 0.02 | 0.00 | 87 | 1008.5 |
| 20260505084554 | 71 | 0 | 0.0 | 4.3 | 0.00 | 0.02 | 0.00 | 87 | 1008.5 |
| 20260505084045 | 71 | 0 | 0.9 | 7.0 | 0.00 | 0.02 | 0.00 | 87 | 1008.3 |
| 20260505083545 | 71 | 0 | 0.9 | 7.0 | 0.00 | 0.02 | 0.00 | 87 | 1008.4 |
| 20260505083101 | 71 | 22 | 0.9 | 6.1 | 0.00 | 0.02 | 0.00 | 87 | 1008.5 |
| 20260505082545 | 71 | 53 | 0.9 | 6.1 | 0.00 | 0.02 | 0.00 | 88 | 1008.6 |
| 20260505082046 | 71 | 22 | 0.9 | 6.1 | 0.00 | 0.02 | 0.00 | 88 | 1008.8 |
| 20260505081555 | 71 | 0 | 0.0 | 6.1 | 0.00 | 0.02 | 0.00 | 88 | 1008.9 |
| 20260505081046 | 71 | 53 | 0.9 | 5.2 | 0.00 | 0.02 | 0.00 | 88 | 1008.8 |
| 20260505080546 | 71 | 45 | 0.9 | 5.2 | 0.00 | 0.02 | 0.00 | 87 | 1008.9 |
| 20260505080050 | 71 | 47 | 0.9 | 4.3 | 0.00 | 0.02 | 0.00 | 87 | 1008.9 |
| 20260505075545 | 71 | 0 | 0.9 | 7.8 | 0.00 | 0.02 | 0.00 | 87 | 1009.0 |
| 20260505075045 | 71 | 15 | 0.9 | 7.8 | 0.00 | 0.02 | 0.00 | 87 | 1009.0 |
| 20260505074549 | 71 | 47 | 0.9 | 6.1 | 0.00 | 0.02 | 0.00 | 87 | 1009.0 |
| 20260505074045 | 71 | 26 | 0.9 | 6.1 | 0.00 | 0.02 | 0.00 | 87 | 1009.1 |
| 20260505073544 | 71 | 21 | 0.9 | 4.3 | 0.00 | 0.02 | 0.00 | 87 | 1009.1 |
| 20260505073056 | 71 | 24 | 0.9 | 5.2 | 0.00 | 0.02 | 0.00 | 87 | 1009.1 |
| 20260505072544 | 71 | 30 | 0.9 | 5.2 | 0.00 | 0.02 | 0.00 | 86 | 1009.2 |
| 20260505072045 | 71 | 53 | 0.0 | 5.2 | 0.00 | 0.02 | 0.00 | 87 | 1009.3 |
| 20260505071557 | 71 | 12 | 0.0 | 5.2 | 0.00 | 0.02 | 0.00 | 86 | 1009.3 |
| 20260505071045 | 71 | 16 | 0.9 | 4.3 | 0.00 | 0.02 | 0.00 | 86 | 1009.3 |
| 20260505070548 | 71 | 35 | 0.9 | 4.3 | 0.00 | 0.02 | 0.00 | 86 | 1009.4 |
| 20260505070055 | 71 | 0 | 0.9 | 5.2 | 0.00 | 0.02 | 0.00 | 86 | 1009.4 |
| 20260505065545 | 71 | 19 | 0.9 | 6.1 | 0.00 | 0.02 | 0.00 | 86 | 1009.5 |
| 20260505065045 | 71 | 20 | 1.7 | 6.1 | 0.00 | 0.02 | 0.00 | 86 | 1009.6 |
| 20260505064601 | 71 | 22 | 0.9 | 6.1 | 0.00 | 0.02 | 0.00 | 86 | 1009.6 |
| 20260505064045 | 71 | 20 | 0.9 | 6.1 | 0.00 | 0.02 | 0.00 | 86 | 1009.7 |
| 20260505063545 | 71 | 36 | 0.9 | 4.3 | 0.00 | 0.02 | 0.00 | 86 | 1009.7 |
| 20260505063056 | 71 | 30 | 0.9 | 7.8 | 0.00 | 0.02 | 0.00 | 86 | 1009.8 |
| 20260505062545 | 71 | 28 | 1.7 | 7.8 | 0.00 | 0.02 | 0.00 | 86 | 1009.8 |
| 20260505062045 | 71 | 32 | 0.0 | 7.8 | 0.00 | 0.02 | 0.00 | 86 | 1009.9 |
| 20260505061607 | 71 | 13 | 1.7 | 7.8 | 0.00 | 0.02 | 0.00 | 86 | 1010.0 |
| 20260505061044 | 72 | 39 | 0.9 | 5.2 | 0.00 | 0.02 | 0.00 | 86 | 1009.9 |
| 20260505060545 | 72 | 23 | 0.9 | 5.2 | 0.00 | 0.02 | 0.00 | 86 | 1010.0 |
| 20260505060058 | 72 | 12 | 0.9 | 6.1 | 0.00 | 0.02 | 0.00 | 86 | 1010.0 |
| 20260505055545 | 72 | 39 | 0.9 | 6.1 | 0.00 | 0.02 | 0.00 | 86 | 1010.0 |
| 20260505055049 | 72 | 15 | 0.9 | 6.1 | 0.00 | 0.02 | 0.00 | 85 | 1010.0 |
| 20260505054601 | 72 | 9 | 0.9 | 7.0 | 0.00 | 0.02 | 0.00 | 85 | 1009.9 |
| 20260505054045 | 72 | 20 | 0.9 | 7.0 | 0.00 | 0.02 | 0.00 | 85 | 1009.9 |
| 20260505053545 | 72 | 21 | 2.6 | 7.0 | 0.00 | 0.02 | 0.00 | 85 | 1009.9 |
| 20260505053109 | 72 | 17 | 0.0 | 5.2 | 0.00 | 0.02 | 0.00 | 85 | 1010.0 |
| 20260505052545 | 72 | 14 | 0.9 | 6.1 | 0.00 | 0.02 | 0.00 | 85 | 1009.9 |
| 20260505052045 | 72 | 0 | 0.9 | 6.1 | 0.00 | 0.02 | 0.00 | 85 | 1009.9 |
| 20260505051552 | 72 | 12 | 1.7 | 5.2 | 0.00 | 0.02 | 0.00 | 85 | 1009.9 |
| 20260505051045 | 72 | 20 | 0.9 | 5.2 | 0.00 | 0.02 | 0.00 | 85 | 1009.9 |
| 20260505050544 | 72 | 0 | 1.7 | 6.1 | 0.00 | 0.02 | 0.00 | 85 | 1009.8 |
| 20260505041611 | 73 | 31 | 0.0 | 5.2 | 0.00 | 0.02 | 0.02 | 83 | 1009.8 |
| 20260505041045 | 73 | 0 | 1.7 | 7.0 | 0.00 | 0.02 | 0.02 | 83 | 1009.8 |
| 20260505040546 | 73 | 45 | 0.9 | 7.0 | 0.00 | 0.02 | 0.02 | 83 | 1009.9 |
| 20260505040056 | 74 | 22 | 1.7 | 4.3 | 0.00 | 0.02 | 0.02 | 82 | 1009.8 |
| 20260505035545 | 74 | 0 | 0.9 | 4.3 | 0.00 | 0.02 | 0.02 | 82 | 1010.0 |
| 20260505035050 | 74 | 0 | 1.7 | 5.2 | 0.00 | 0.02 | 0.02 | 82 | 1009.9 |
| 20260505034558 | 74 | 24 | 0.9 | 5.2 | 0.00 | 0.02 | 0.02 | 81 | 1009.9 |
| 20260505034047 | 74 | 0 | 0.9 | 5.2 | 0.00 | 0.02 | 0.02 | 81 | 1009.8 |
| 20260505033545 | 74 | 39 | 0.9 | 7.0 | 0.00 | 0.02 | 0.02 | 81 | 1009.7 |
| 20260505033053 | 74 | 25 | 0.9 | 7.0 | 0.00 | 0.02 | 0.02 | 81 | 1009.9 |
| 20260505032548 | 74 | 16 | 0.9 | 6.1 | 0.00 | 0.02 | 0.02 | 81 | 1009.8 |
| 20260505032044 | 74 | 27 | 0.0 | 3.5 | 0.00 | 0.02 | 0.02 | 81 | 1009.9 |
| 20260505031602 | 75 | 0 | 0.0 | 3.5 | 0.00 | 0.02 | 0.02 | 80 | 1009.8 |
| 20260505031048 | 75 | 102 | 0.9 | 3.5 | 0.00 | 0.02 | 0.02 | 80 | 1009.9 |
| 20260505030548 | 75 | 9 | 0.0 | 3.5 | 0.00 | 0.02 | 0.02 | 80 | 1009.8 |
| 20260505030048 | 75 | 0 | 0.9 | 3.5 | 0.00 | 0.02 | 0.02 | 79 | 1009.8 |
| 20260505025545 | 75 | 16 | 0.9 | 5.2 | 0.00 | 0.02 | 0.02 | 79 | 1009.8 |
| 20260505025047 | 75 | 0 | 0.9 | 5.2 | 0.00 | 0.02 | 0.02 | 79 | 1009.8 |
| 20260505024549 | 75 | 0 | 0.0 | 4.3 | 0.00 | 0.02 | 0.02 | 79 | 1009.7 |
| 20260505024045 | 75 | 0 | 0.0 | 4.3 | 0.00 | 0.02 | 0.02 | 78 | 1009.8 |
| 20260505023545 | 76 | 18 | 0.9 | 4.3 | 0.00 | 0.02 | 0.02 | 78 | 1009.8 |
| 20260505023057 | 76 | 18 | 0.9 | 5.2 | 0.00 | 0.02 | 0.02 | 78 | 1009.7 |
| 20260505022545 | 76 | 0 | 1.7 | 5.2 | 0.00 | 0.02 | 0.02 | 78 | 1009.7 |
| 20260505022045 | 76 | 19 | 0.0 | 2.6 | 0.00 | 0.02 | 0.02 | 78 | 1009.6 |
| 20260505021555 | 76 | 0 | 0.0 | 2.6 | 0.00 | 0.02 | 0.02 | 77 | 1009.6 |
| 20260505021044 | 76 | 0 | 0.0 | 3.5 | 0.00 | 0.02 | 0.02 | 77 | 1009.7 |
| 20260505020545 | 76 | 24 | 0.0 | 3.5 | 0.00 | 0.02 | 0.02 | 76 | 1009.6 |
| 20260505020049 | 76 | 12 | 0.0 | 3.5 | 0.00 | 0.02 | 0.02 | 76 | 1009.5 |
| 20260505015548 | 77 | 12 | 0.9 | 3.5 | 0.00 | 0.02 | 0.02 | 75 | 1009.5 |
| 20260505015046 | 77 | 0 | 0.0 | 5.2 | 0.00 | 0.02 | 0.02 | 75 | 1009.6 |
| 20260505014553 | 77 | 12 | 0.0 | 6.1 | 0.00 | 0.02 | 0.02 | 75 | 1009.4 |
| 20260505014046 | 77 | 6 | 1.7 | 6.1 | 0.00 | 0.02 | 0.02 | 74 | 1009.4 |
| 20260505013545 | 77 | 0 | 0.0 | 4.3 | 0.00 | 0.02 | 0.02 | 73 | 1009.5 |
| 20260505013047 | 77 | 0 | 0.9 | 4.3 | 0.00 | 0.02 | 0.02 | 73 | 1009.4 |
| 20260505012545 | 78 | 0 | 0.0 | 4.3 | 0.00 | 0.02 | 0.02 | 72 | 1009.3 |
| 20260505012048 | 78 | 0 | 0.0 | 4.3 | 0.00 | 0.02 | 0.02 | 71 | 1009.4 |
| 20260505011549 | 78 | 28 | 0.9 | 4.3 | 0.00 | 0.02 | 0.02 | 71 | 1009.3 |
| 20260505011048 | 78 | 20 | 0.0 | 3.5 | 0.00 | 0.02 | 0.02 | 70 | 1009.2 |
| 20260505010545 | 78 | 22 | 0.0 | 3.5 | 0.00 | 0.02 | 0.02 | 69 | 1009.2 |
| 20260505010052 | 79 | 0 | 0.0 | 4.3 | 0.00 | 0.02 | 0.02 | 69 | 1009.3 |
| 20260505005548 | 79 | 21 | 0.9 | 7.0 | 0.00 | 0.02 | 0.02 | 69 | 1009.2 |
| 20260505005048 | 79 | 29 | 0.9 | 7.0 | 0.00 | 0.02 | 0.02 | 68 | 1009.2 |
| 20260505004549 | 79 | 16 | 1.7 | 5.2 | 0.00 | 0.02 | 0.02 | 68 | 1009.3 |
| 20260505004047 | 79 | 11 | 0.9 | 5.2 | 0.00 | 0.02 | 0.02 | 68 | 1009.2 |
| 20260505003547 | 79 | 0 | 0.9 | 5.2 | 0.00 | 0.02 | 0.02 | 68 | 1009.1 |
| 20260505003055 | 79 | 18 | 0.9 | 7.0 | 0.00 | 0.02 | 0.02 | 67 | 1009.1 |
| 20260505002550 | 79 | 20 | 0.9 | 7.0 | 0.00 | 0.02 | 0.02 | 67 | 1009.0 |
| 20260505002051 | 79 | 17 | 1.7 | 8.7 | 0.00 | 0.02 | 0.02 | 67 | 1008.8 |
| 20260505001554 | 79 | 34 | 0.9 | 8.7 | 0.00 | 0.02 | 0.02 | 67 | 1008.9 |
| 20260505001048 | 80 | 0 | 1.7 | 5.2 | 0.00 | 0.02 | 0.02 | 66 | 1009.0 |
| 20260505000547 | 80 | 25 | 1.7 | 6.1 | 0.01 | 0.02 | 0.02 | 66 | 1009.0 |
| 20260505000058 | 80 | 29 | 0.9 | 6.1 | 0.01 | 0.02 | 0.02 | 66 | 1009.2 |
| 20260504235548 | 80 | 0 | 0.9 | 6.1 | 0.01 | 0.02 | 0.02 | 65 | 1009.3 |
| 20260504235048 | 80 | 35 | 0.0 | 6.1 | 0.01 | 0.02 | 0.02 | 65 | 1009.3 |
| 20260504234557 | 80 | 17 | 0.9 | 3.5 | 0.01 | 0.02 | 0.02 | 65 | 1009.4 |
| 20260504234048 | 80 | 0 | 0.0 | 6.1 | 0.01 | 0.02 | 0.02 | 65 | 1009.4 |
| 20260504233548 | 80 | 0 | 1.7 | 7.0 | 0.01 | 0.02 | 0.02 | 65 | 1009.5 |
| 20260504233050 | 80 | 12 | 1.7 | 9.6 | 0.01 | 0.02 | 0.02 | 65 | 1009.5 |
| 20260504232548 | 80 | 37 | 1.7 | 9.6 | 0.01 | 0.02 | 0.02 | 66 | 1009.5 |
| 20260504232046 | 80 | 16 | 1.7 | 7.8 | 0.01 | 0.02 | 0.02 | 65 | 1009.6 |
| 20260504231559 | 80 | 28 | 0.0 | 8.7 | 0.01 | 0.02 | 0.02 | 67 | 1009.6 |
| 20260504231047 | 80 | 8 | 1.7 | 8.7 | 0.01 | 0.02 | 0.02 | 65 | 1009.6 |
| 20260504230548 | 81 | 33 | 0.9 | 7.0 | 0.00 | 0.01 | 0.01 | 65 | 1009.7 |
| 20260504230058 | 81 | 22 | 1.7 | 7.0 | 0.00 | 0.01 | 0.01 | 64 | 1009.7 |
| 20260504225548 | 81 | 25 | 1.7 | 7.8 | 0.00 | 0.02 | 0.01 | 64 | 1009.9 |
| 20260504225046 | 81 | 28 | 1.7 | 7.8 | 0.00 | 0.02 | 0.01 | 64 | 1010.0 |
| 20260504224551 | 81 | 33 | 1.7 | 7.8 | 0.00 | 0.02 | 0.01 | 64 | 1010.0 |
| 20260504224048 | 81 | 24 | 0.9 | 5.2 | 0.00 | 0.02 | 0.01 | 64 | 1010.0 |
| 20260504223548 | 82 | 18 | 1.7 | 5.2 | 0.00 | 0.02 | 0.01 | 64 | 1009.9 |
| 20260504223051 | 82 | 0 | 0.9 | 6.1 | 0.00 | 0.02 | 0.01 | 64 | 1010.0 |
| 20260504222548 | 82 | 28 | 0.9 | 6.1 | 0.00 | 0.02 | 0.01 | 63 | 1010.1 |
| 20260504222048 | 82 | 18 | 0.9 | 5.2 | 0.00 | 0.02 | 0.01 | 64 | 1010.1 |
| 20260504221557 | 82 | 31 | 1.7 | 6.1 | 0.00 | 0.02 | 0.01 | 63 | 1010.0 |
| 20260504221049 | 82 | 22 | 1.7 | 6.1 | 0.00 | 0.02 | 0.01 | 64 | 1010.1 |
| 20260504220548 | 81 | 20 | 0.9 | 5.2 | 0.00 | 0.02 | 0.01 | 64 | 1010.2 |
| 20260504220054 | 81 | 18 | 0.0 | 6.1 | 0.00 | 0.02 | 0.01 | 64 | 1010.1 |
| 20260504215548 | 82 | 9 | 2.6 | 7.0 | 0.00 | 0.02 | 0.01 | 63 | 1010.2 |
| 20260504215111 | 82 | 27 | 0.9 | 7.0 | 0.00 | 0.02 | 0.01 | 63 | 1010.3 |
| 20260504214555 | 82 | 48 | 0.9 | 5.2 | 0.00 | 0.02 | 0.01 | 64 | 1010.2 |
| 20260504214047 | 82 | 0 | 0.9 | 6.1 | 0.00 | 0.02 | 0.01 | 63 | 1010.2 |
| 20260504213547 | 82 | 24 | 1.7 | 6.1 | 0.00 | 0.02 | 0.01 | 63 | 1010.2 |
| 20260504213056 | 82 | 85 | 0.9 | 7.8 | 0.00 | 0.02 | 0.01 | 63 | 1010.3 |
| 20260504212547 | 82 | 35 | 0.0 | 7.8 | 0.00 | 0.02 | 0.01 | 64 | 1010.6 |
| 20260504212047 | 82 | 33 | 0.9 | 5.2 | 0.00 | 0.02 | 0.01 | 64 | 1010.6 |
| 20260504211553 | 82 | 0 | 0.9 | 5.2 | 0.00 | 0.02 | 0.01 | 64 | 1010.7 |
| 20260504211052 | 82 | 12 | 1.7 | 5.2 | 0.00 | 0.02 | 0.01 | 63 | 1010.6 |
| 20260504210548 | 82 | 20 | 0.9 | 7.8 | 0.00 | 0.02 | 0.01 | 64 | 1010.9 |
| 20260504210109 | 81 | 17 | 1.7 | 7.8 | 0.00 | 0.02 | 0.01 | 64 | 1010.9 |
| 20260504205550 | 81 | 12 | 0.9 | 8.7 | 0.00 | 0.02 | 0.01 | 64 | 1011.0 |
| 20260504205044 | 81 | 16 | 1.7 | 8.7 | 0.00 | 0.02 | 0.01 | 64 | 1011.0 |
| 20260504204602 | 81 | 18 | 1.7 | 7.8 | 0.00 | 0.02 | 0.01 | 64 | 1011.0 |
| 20260504204048 | 81 | 0 | 0.9 | 7.8 | 0.00 | 0.02 | 0.01 | 64 | 1011.1 |
| 20260504203548 | 81 | 23 | 1.7 | 7.8 | 0.00 | 0.02 | 0.01 | 64 | 1011.3 |
| 20260504203058 | 81 | 0 | 1.7 | 7.0 | 0.00 | 0.02 | 0.01 | 63 | 1011.5 |
| 20260504202548 | 81 | 22 | 1.7 | 7.0 | 0.00 | 0.02 | 0.01 | 64 | 1011.5 |
| 20260504202047 | 81 | 24 | 0.9 | 7.0 | 0.00 | 0.02 | 0.01 | 66 | 1011.6 |
| 20260504201554 | 81 | 37 | 0.9 | 7.0 | 0.00 | 0.02 | 0.01 | 64 | 1011.7 |